Location: El Bakhil
(32.7726°N, 5.5387°W)
Time: 04:01:48
(UTC+00:00)

AO-73 - Pass Details

Date: 11 August 2021
Orbit: 581 x 661 km, 97.6° (Epoch: 26 September)

Event Time Altitude Azimuth Distance (km) Brightness Sun altitude
Rises 04:43:56 0° 17° (NNE) 2,989 ? -12.2°
Reaches altitude 10° 04:46:12 10° 23° (NNE) 2,079 ? -11.8°
Maximum altitude 04:50:39 52° 99° (E) 824 ? -11.0°
Drops below altitude 10° 04:55:04 10° 176° (S) 2,068 ? -10.2°
Sets 04:57:19 0° 181° (S) 2,972 ? -9.7°
